CUTE-1 (CO-55)

Last updated on Thu Nov 21 2024 00:03:02 GMT+0000 (Coordinated Universal Time)

1 27844U 03031E 24324.99860110 .00000761 00000+0 35283-3 0 9998 2 27844 98.6786 329.9107 0010667 56.5059 303.7137 14.23648207109957
UTC large
Height (km)
Speed (km/s)
/
Latitude / Longitude
Inclination (degrees)
Orbital Period (minutes)
Azimuth
Elevation
Range (km)
Doppler Factor

Next 0 passes for location: London (51.5072 / 0.1276)

Sorry there are no passes over London.